2019-252T00:00:32.128,   1, 180,   1,    30,   4,          0,     46.128,  99216.844,    43.317,    -6.838,     0.333,    78.187, 2, 5.486E-04, -1.00,   2,  4.837E-03,  1.555E-04,  7.241E-13,  4.689E-14,  9.344E+02,  6.051E+01, 255
2019-252T00:01:02.129,   1, 180,   1,    30,   4,          0,     46.128,  99216.844,    43.314,    -6.837,     0.333,    77.884, 2, 5.486E-04, -1.00,   2,  4.709E-03,  1.548E-04,  6.036E-13,  4.566E-14,  8.000E+02,  6.053E+01, 255
2019-252T00:01:32.129,   1, 180,   1,    30,   4,          0,     46.128,  99216.844,    43.311,    -6.836,     0.333,    77.582, 2, 5.486E-04, -1.00,   2,  5.044E-03,  1.544E-04,  9.678E-13,  4.685E-14,  1.197E+03,  5.797E+01, 255
2019-252T00:02:02.129,   1, 180,   1,    30,   4,          0,     46.128,  99216.844,    43.308,    -6.835,     0.333,    77.280, 2, 5.486E-04, -1.00,   2,  5.585E-03,  1.591E-04,  7.966E-13,  4.638E-14,  8.903E+02,  5.184E+01, 255
2019-252T00:02:32.130,   1, 180,   1,    30,   4,          0,     46.128,  99216.844,    43.305,    -6.834,     0.333,    76.977, 2, 5.486E-04, -1.00,   2,  5.392E-03,  1.598E-04,  7.001E-13,  4.573E-14,  8.104E+02,  5.293E+01, 255
2019-252T00:03:02.130,   1, 180,   1,    30,   4,          0,     46.128,  99216.844,    43.302,    -6.834,     0.333,    76.675, 2, 5.486E-04, -1.00,   2,  5.103E-03,  1.558E-04,  5.982E-13,  4.591E-14,  7.316E+02,  5.615E+01, 255
2019-252T00:03:32.131,   1, 180,   1,    30,   4,          0,     46.128,  99216.844,    43.299,    -6.833,     0.333,    76.372, 2, 5.486E-04, -1.00,   2,  5.467E-03,  1.585E-04,  7.509E-13,  4.607E-14,  8.574E+02,  5.260E+01, 255
2019-252T00:04:02.131,   1, 180,   1,    30,   4,          0,     46.128,  99216.844,    43.296,    -6.832,     0.333,    76.070, 2, 5.486E-04, -1.00,   2,  5.486E-03,  1.583E-04,  6.537E-13,  4.518E-14,  7.437E+02,  5.140E+01, 255
2019-252T00:04:32.131,   1, 180,   1,    30,   4,          0,     46.128,  99216.844,    43.293,    -6.831,     0.333,    75.767, 2, 5.486E-04, -1.00,   2,  5.796E-03,  1.582E-04,  9.993E-13,  4.619E-14,  1.076E+03,  4.974E+01, 255
2019-252T00:05:02.131,   1, 180,   1,    30,   4,          0,     46.128,  99216.844,    43.291,    -6.831,     0.333,    75.465, 2, 5.486E-04, -1.00,   2,  5.791E-03,  1.634E-04,  1.033E-12,  4.675E-14,  1.113E+03,  5.039E+01, 255
2019-252T00:05:32.132,   1, 180,   1,    30,   4,          0,     46.128,  99216.844,    43.288,    -6.830,     0.333,    75.163, 2, 5.486E-04, -1.00,   2,  4.297E-03,  1.539E-04,  5.249E-13,  4.539E-14,  7.623E+02,  6.593E+01, 255
2019-252T00:06:02.132,   1, 180,   1,    30,   4,          0,     46.128,  99216.844,    43.285,    -6.829,     0.333,    74.860, 2, 5.486E-04, -1.00,   2,  4.521E-03,  1.560E-04,  5.815E-13,  4.570E-14,  8.028E+02,  6.309E+01, 255
2019-252T00:06:32.133,   1, 180,   1,    30,   4,          0,     46.128,  99216.844,    43.282,    -6.828,     0.333,    74.558, 2, 5.486E-04, -1.00,   2,  4.064E-03,  1.543E-04,  5.089E-13,  4.624E-14,  7.817E+02,  7.102E+01, 255
2019-252T00:07:02.133,   1, 180,   1,    30,   4,          0,     46.128,  99216.844,    43.279,    -6.827,     0.333,    74.255, 2, 5.486E-04, -1.00,   2,  3.712E-03,  1.559E-04,  4.324E-13,  4.585E-14,  7.272E+02,  7.709E+01, 255
2019-252T00:07:32.133,   1, 180,   1,    30,   4,          0,     46.128,  99216.844,    43.276,    -6.827,     0.333,    73.953, 2, 5.486E-04, -1.00,   2,  3.866E-03,  1.553E-04,  6.244E-13,  4.657E-14,  1.008E+03,  7.518E+01, 255
2019-252T00:08:02.134,   1, 180,   1,    30,   4,          0,     46.128,  99216.844,    43.273,    -6.826,     0.333,    73.650, 2, 5.486E-04, -1.00,   2,  3.937E-03,  1.596E-04,  4.154E-13,  4.600E-14,  6.584E+02,  7.291E+01, 255
2019-252T00:08:32.134,   1, 180,   1,    30,   4,          0,     46.128,  99216.844,    43.270,    -6.825,     0.333,    73.348, 2, 5.486E-04, -1.00,   2,  3.785E-03,  1.538E-04,  5.474E-13,  4.663E-14,  9.025E+02,  7.688E+01, 255
2019-252T00:09:02.134,   1, 180,   1,    30,   4,          0,     46.128,  99216.844,    43.267,    -6.824,     0.333,    73.046, 2, 5.486E-04, -1.00,   2,  4.050E-03,  1.556E-04,  5.187E-13,  4.648E-14,  7.993E+02,  7.162E+01, 255
2019-252T00:09:32.135,   1, 180,   1,    30,   4,          0,     46.128,  99216.844,    43.264,    -6.824,     0.333,    72.743, 2, 5.486E-04, -1.00,   2,  3.770E-03,  1.517E-04,  4.913E-13,  4.602E-14,  8.134E+02,  7.618E+01, 255
2019-252T00:10:02.135,   1, 180,   1,    30,   4,          0,     46.128,  99216.844,    43.261,    -6.823,     0.333,    72.441, 2, 5.486E-04, -1.00,   2,  3.935E-03,  1.520E-04,  5.041E-13,  4.578E-14,  7.997E+02,  7.262E+01, 255
2019-252T00:10:32.135,   1, 180,   1,    30,   4,          0,     46.128,  99216.844,    43.258,    -6.822,     0.333,    72.138, 2, 5.486E-04, -1.00,   2,  3.770E-03,  1.536E-04,  3.966E-13,  4.548E-14,  6.565E+02,  7.528E+01, 255
2019-252T00:11:02.136,   1, 180,   1,    30,   4,          0,     46.128,  99216.844,    43.255,    -6.821,     0.333,    71.836, 2, 5.486E-04, -1.00,   2,  4.061E-03,  1.552E-04,  5.671E-13,  4.599E-14,  8.716E+02,  7.069E+01, 255
2019-252T00:11:32.136,   1, 180,   1,    30,   4,          0,     46.128,  99216.844,    43.252,    -6.820,     0.333,    71.533, 2, 5.486E-04, -1.00,   2,  3.390E-03,  1.491E-04,  4.290E-13,  4.547E-14,  7.898E+02,  8.370E+01, 255
2019-252T00:12:02.136,   1, 180,   1,    30,   4,          0,     46.128,  99216.844,    43.250,    -6.820,     0.333,    71.231, 2, 5.486E-04, -1.00,   2,  3.736E-03,  1.553E-04,  3.986E-13,  4.522E-14,  6.658E+02,  7.554E+01, 255
2019-252T00:12:32.137,   1, 180,   1,    30,   4,          0,     46.128,  99216.844,    43.247,    -6.819,     0.333,    70.929, 2, 5.486E-04, -1.00,   2,  3.606E-03,  1.524E-04,  3.608E-13,  4.592E-14,  6.245E+02,  7.947E+01, 255
2019-252T00:13:02.137,   1, 180,   1,    30,   4,          0,     46.128,  99216.844,    43.244,    -6.818,     0.333,    70.626, 2, 5.486E-04, -1.00,   2,  3.774E-03,  1.511E-04,  4.331E-13,  4.576E-14,  7.163E+02,  7.568E+01, 255
2019-252T00:13:32.137,   1, 180,   1,    30,   4,          0,     46.128,  99216.844,    43.241,    -6.817,     0.333,    70.324, 2, 5.486E-04, -1.00,   2,  3.684E-03,  1.567E-04,  2.649E-13,  4.509E-14,  4.487E+02,  7.638E+01, 255
2019-252T00:14:02.138,   1, 180,   1,    30,   4,          0,     46.128,  99216.844,    43.238,    -6.817,     0.333,    70.021, 2, 5.486E-04, -1.00,   2,  3.309E-03,  1.501E-04,  3.631E-13,  4.515E-14,  6.849E+02,  8.517E+01, 255
2019-252T00:14:32.138,   1, 180,   1,    30,   4,          0,     46.128,  99216.844,    43.235,    -6.816,     0.333,    69.719, 2, 5.486E-04, -1.00,   2,  3.713E-03,  1.529E-04,  5.114E-13,  4.565E-14,  8.596E+02,  7.674E+01, 255
2019-252T00:15:02.138,   1, 180,   1,    30,   4,          0,     46.128,  99216.844,    43.232,    -6.815,     0.333,    69.416, 2, 5.486E-04, -1.00,   2,  3.864E-03,  1.558E-04,  3.412E-13,  4.570E-14,  5.512E+02,  7.382E+01, 255
2019-252T00:15:32.139,   1, 180,   1,    30,   4,          0,     46.128,  99216.844,    43.229,    -6.814,     0.333,    69.114, 2, 5.486E-04, -1.00,   2,  3.674E-03,  1.566E-04,  3.735E-13,  4.517E-14,  6.346E+02,  7.674E+01, 255
2019-252T00:16:02.139,   1, 180,   1,    30,   4,          0,     46.128,  99216.844,    43.226,    -6.813,     0.333,    68.812, 2, 5.486E-04, -1.00,   2,  3.356E-03,  1.527E-04,  4.356E-13,  4.573E-14,  8.100E+02,  8.505E+01, 255
2019-252T00:17:32.140,   1, 180,   1,    30,   4,          0,     46.128,  99216.844,    43.217,    -6.811,     0.333,    67.904, 2, 5.486E-04, -1.00,   2,  3.871E-03,  1.522E-04,  4.970E-13,  4.552E-14,  8.014E+02,  7.341E+01, 255
2019-252T00:18:02.141,   1, 180,   1,    30,   4,          0,     46.128,  99216.844,    43.214,    -6.810,     0.333,    67.602, 2, 5.486E-04, -1.00,   2,  3.934E-03,  1.547E-04,  3.831E-13,  4.551E-14,  6.078E+02,  7.221E+01, 255
2019-252T00:18:32.141,   1, 180,   1,    30,   4,          0,     46.128,  99216.844,    43.211,    -6.809,     0.333,    67.299, 2, 5.486E-04, -1.00,   2,  4.372E-03,  1.536E-04,  6.646E-13,  4.613E-14,  9.488E+02,  6.586E+01, 255
2019-252T00:19:02.141,   1, 180,   1,    30,   4,          0,     46.128,  99216.844,    43.209,    -6.809,     0.333,    66.997, 2, 5.486E-04, -1.00,   2,  3.440E-03,  1.514E-04,  3.638E-13,  4.520E-14,  6.600E+02,  8.201E+01, 255
2019-252T00:19:32.142,   1, 180,   1,    30,   4,          0,     46.128,  99216.844,    43.206,    -6.808,     0.333,    66.695, 2, 5.486E-04, -1.00,   2,  3.335E-03,  1.503E-04,  6.300E-13,  4.643E-14,  1.179E+03,  8.690E+01, 255
2019-252T00:20:02.142,   1, 180,   1,    30,   4,          0,     46.128,  99216.844,    43.203,    -6.807,     0.333,    66.392, 2, 5.486E-04, -1.00,   2,  3.105E-03,  1.490E-04,  4.069E-13,  4.476E-14,  8.179E+02,  8.997E+01, 255
2019-252T00:20:32.142,   1, 180,   1,    30,   4,          0,     46.128,  99216.844,    43.200,    -6.806,     0.333,    66.090, 2, 5.486E-04, -1.00,   2,  3.516E-03,  1.516E-04,  6.366E-13,  4.718E-14,  1.130E+03,  8.375E+01, 255
2019-252T00:21:02.143,   1, 180,   1,    30,   4,          0,     46.128,  99216.844,    43.197,    -6.806,     0.333,    65.787, 2, 5.486E-04, -1.00,   2,  3.418E-03,  1.515E-04,  5.030E-13,  4.558E-14,  9.185E+02,  8.322E+01, 255
2019-252T00:21:32.143,   1, 180,   1,    30,   4,          0,     46.128,  99216.844,    43.194,    -6.805,     0.333,    65.485, 2, 5.486E-04, -1.00,   2,  3.099E-03,  1.456E-04,  5.378E-13,  4.669E-14,  1.083E+03,  9.403E+01, 255
2019-252T00:22:02.143,   1, 180,   1,    30,   4,          0,     46.128,  99216.844,    43.191,    -6.804,     0.333,    65.182, 2, 5.486E-04, -1.00,   2,  3.254E-03,  1.506E-04,  3.660E-13,  4.615E-14,  7.020E+02,  8.852E+01, 255
2019-252T00:22:32.144,   1, 180,   1,    30,   4,          0,     46.128,  99216.844,    43.188,    -6.803,     0.333,    64.880, 2, 5.486E-04, -1.00,   2,  3.522E-03,  1.520E-04,  3.794E-13,  4.586E-14,  6.724E+02,  8.127E+01, 255
2019-252T00:23:02.144,   1, 180,   1,    30,   4,          0,     46.128,  99216.844,    43.185,    -6.802,     0.333,    64.578, 2, 5.486E-04, -1.00,   2,  3.941E-03,  1.533E-04,  4.937E-13,  4.598E-14,  7.819E+02,  7.282E+01, 255
2019-252T00:23:32.144,   1, 180,   1,    30,   4,          0,     46.128,  99216.844,    43.182,    -6.802,     0.333,    64.275, 2, 5.486E-04, -1.00,   2,  4.167E-03,  1.569E-04,  5.351E-13,  4.583E-14,  8.015E+02,  6.865E+01, 255
2019-252T00:24:02.145,   1, 180,   1,    30,   4,          0,     46.128,  99216.844,    43.179,    -6.801,     0.333,    63.973, 2, 5.486E-04, -1.00,   2,  3.394E-03,  1.492E-04,  4.214E-13,  4.520E-14,  7.750E+02,  8.312E+01, 255
2019-252T00:24:32.145,   1, 180,   1,    30,   4,          0,     46.128,  99216.844,    43.176,    -6.800,     0.333,    63.670, 2, 5.486E-04, -1.00,   2,  3.843E-03,  1.559E-04,  5.494E-13,  4.562E-14,  8.923E+02,  7.409E+01, 255
2019-252T00:25:02.145,   1, 180,   1,    30,   4,          0,     46.128,  99216.844,    43.173,    -6.799,     0.333,    63.368, 2, 5.486E-04, -1.00,   2,  3.995E-03,  1.548E-04,  4.234E-13,  4.560E-14,  6.614E+02,  7.124E+01, 255
2019-252T00:25:32.146,   1, 180,   1,    30,   4,          0,     46.128,  99216.844,    43.170,    -6.798,     0.333,    63.065, 2, 5.486E-04, -1.00,   2,  4.425E-03,  1.558E-04,  5.138E-13,  4.507E-14,  7.248E+02,  6.358E+01, 255
2019-252T00:26:02.146,   1, 180,   1,    30,   4,          0,     46.128,  99216.844,    43.167,    -6.798,     0.333,    62.763, 2, 5.486E-04, -1.00,   2,  4.594E-03,  1.560E-04,  4.789E-13,  4.525E-14,  6.507E+02,  6.148E+01, 255
2019-252T00:26:32.146,   1, 180,   1,    30,   4,          0,     46.128,  99216.844,    43.165,    -6.797,     0.333,    62.461, 2, 5.486E-04, -1.00,   2,  4.591E-03,  1.523E-04,  6.398E-13,  4.527E-14,  8.698E+02,  6.153E+01, 255
2019-252T00:27:02.147,   1, 180,   1,    30,   4,          0,     46.128,  99216.844,    43.162,    -6.796,     0.333,    62.158, 2, 5.486E-04, -1.00,   2,  4.055E-03,  1.492E-04,  4.549E-13,  4.568E-14,  7.002E+02,  7.032E+01, 255
2019-252T00:27:32.147,   1, 180,   1,    30,   4,          0,     46.128,  99216.844,    43.159,    -6.795,     0.333,    61.856, 2, 5.486E-04, -1.00,   2,  4.708E-03,  1.555E-04,  5.889E-13,  4.584E-14,  7.807E+02,  6.077E+01, 255
2019-252T00:28:02.148,   1, 180,   1,    30,   4,          0,     46.128,  99216.844,    43.156,    -6.795,     0.333,    61.553, 2, 5.486E-04, -1.00,   2,  4.514E-03,  1.514E-04,  6.533E-13,  4.551E-14,  9.033E+02,  6.293E+01, 255
2019-252T00:28:32.148,   1, 180,   1,    30,   4,          0,     46.128,  99216.844,    43.153,    -6.794,     0.333,    61.251, 2, 5.486E-04, -1.00,   2,  3.227E-03,  1.505E-04,  3.343E-13,  4.538E-14,  6.466E+02,  8.777E+01, 255
2019-252T00:29:02.148,   1, 180,   1,    30,   4,          0,     46.128,  99216.844,    43.150,    -6.793,     0.333,    60.948, 2, 5.486E-04, -1.00,   2,  3.276E-03,  1.504E-04,  4.614E-13,  4.575E-14,  8.792E+02,  8.717E+01, 255
2019-252T00:29:32.149,   1, 180,   1,    30,   4,          0,     46.128,  99216.844,    43.147,    -6.792,     0.333,    60.646, 2, 5.486E-04, -1.00,   2,  2.935E-03,  1.480E-04,  3.372E-13,  4.512E-14,  7.171E+02,  9.595E+01, 255
2019-252T00:30:02.149,   1, 180,   1,    30,   4,          0,     46.128,  99216.844,    43.144,    -6.791,     0.333,    60.344, 2, 5.486E-04, -1.00,   2,  3.762E-03,  1.522E-04,  5.992E-13,  4.625E-14,  9.941E+02,  7.672E+01, 255
2019-252T00:31:02.150,   1, 180,   1,    30,   4,          0,     46.128,  99216.844,    43.138,    -6.790,     0.333,    59.739, 2, 5.486E-04, -1.00,   2,  2.539E-03,  1.449E-04,  5.658E-13,  4.792E-14,  1.391E+03,  1.178E+02, 255
2019-252T00:31:32.150,   1, 180,   1,    30,   4,          0,     46.128,  99216.844,    43.135,    -6.789,     0.333,    59.436, 2, 5.486E-04, -1.00,   2,  2.623E-03,  1.437E-04,  2.858E-13,  4.535E-14,  6.800E+02,  1.079E+02, 255
2019-252T00:32:02.150,   1, 180,   1,    30,   4,          0,     46.128,  99216.844,    43.132,    -6.788,     0.333,    59.134, 2, 5.486E-04, -1.00,   2,  2.863E-03,  1.473E-04,  3.171E-13,  4.539E-14,  6.912E+02,  9.893E+01, 255
2019-252T00:32:32.151,   1, 180,   1,    30,   4,          0,     46.128,  99216.844,    43.129,    -6.787,     0.333,    58.831, 2, 5.486E-04, -1.00,   2,  2.857E-03,  1.462E-04,  3.954E-13,  4.533E-14,  8.638E+02,  9.903E+01, 255
2019-252T00:33:02.151,   1, 180,   1,    30,   4,          0,     46.128,  99216.844,    43.126,    -6.787,     0.333,    58.529, 2, 5.486E-04, -1.00,   2,  2.624E-03,  1.506E-04,  2.586E-13,  4.584E-14,  6.151E+02,  1.090E+02, 255
2019-252T00:33:32.151,   1, 180,   1,    30,   4,          0,     46.128,  99216.844,    43.123,    -6.786,     0.333,    58.226, 2, 5.486E-04, -1.00,   2,  2.622E-03,  1.467E-04,  3.972E-13,  4.590E-14,  9.455E+02,  1.093E+02, 255
2019-252T00:34:02.152,   1, 180,   1,    30,   4,          0,     46.128,  99216.844,    43.121,    -6.785,     0.333,    57.924, 2, 5.486E-04, -1.00,   2,  2.529E-03,  1.506E-04,  3.114E-13,  4.615E-14,  7.686E+02,  1.139E+02, 255
2019-252T00:36:32.153,   1, 180,   1,    30,   4,          0,     46.128,  99216.844,    43.106,    -6.781,     0.333,    56.412, 2, 5.486E-04, -1.00,   2,  2.781E-03,  1.452E-04,  4.276E-13,  4.492E-14,  9.596E+02,  1.008E+02, 255
2019-252T00:37:02.154,   1, 180,   1,    30,   4,          0,     46.128,  99216.844,    43.103,    -6.780,     0.333,    56.109, 2, 5.486E-04, -1.00,   2,  2.619E-03,  1.485E-04,  3.599E-13,  4.486E-14,  8.576E+02,  1.069E+02, 255
2019-252T00:37:32.154,   1, 180,   1,    30,   4,          0,     46.128,  99216.844,    43.100,    -6.780,     0.333,    55.807, 2, 5.486E-04, -1.00,   2,  2.673E-03,  1.447E-04,  4.042E-13,  4.540E-14,  9.437E+02,  1.060E+02, 255
2019-252T00:38:02.155,   1, 180,   1,    30,   4,          0,     46.128,  99216.844,    43.097,    -6.779,     0.333,    55.505, 2, 5.486E-04, -1.00,   2,  2.685E-03,  1.470E-04,  5.786E-13,  4.633E-14,  1.345E+03,  1.077E+02, 255
2019-252T00:43:02.158,   1, 180,   1,    30,   4,          0,     46.128,  99216.844,    43.068,    -6.771,     0.332,    52.480, 2, 5.486E-04, -1.00,   2,  2.761E-03,  1.475E-04,  4.999E-13,  4.585E-14,  1.130E+03,  1.037E+02, 255
2019-252T00:43:32.158,   1, 180,   1,    30,   4,          0,     46.128,  99216.844,    43.065,    -6.770,     0.332,    52.178, 2, 5.486E-04, -1.00,   2,  3.286E-03,  1.490E-04,  6.002E-13,  4.594E-14,  1.140E+03,  8.726E+01, 255
2019-252T00:44:02.159,   1, 180,   1,    30,   4,          0,     46.128,  99216.844,    43.062,    -6.769,     0.332,    51.875, 2, 5.486E-04, -1.00,   2,  4.285E-03,  1.556E-04,  4.870E-13,  4.628E-14,  7.094E+02,  6.740E+01, 255
2019-252T00:44:32.159,   1, 180,   1,    30,   4,          0,     46.128,  99216.844,    43.059,    -6.769,     0.332,    51.573, 2, 5.486E-04, -1.00,   2,  5.280E-03,  1.550E-04,  6.787E-13,  4.502E-14,  8.023E+02,  5.322E+01, 255
2019-252T00:45:02.159,   1, 180,   1,    30,   4,          0,     46.128,  99216.844,    43.056,    -6.768,     0.332,    51.271, 2, 5.486E-04, -1.00,   2,  6.698E-03,  1.645E-04,  1.185E-12,  4.673E-14,  1.104E+03,  4.355E+01, 255
2019-252T00:45:32.160,   1, 180,   1,    30,   4,          0,     46.128,  99216.844,    43.053,    -6.767,     0.332,    50.968, 2, 5.486E-04, -1.00,   2,  1.037E-02,  1.757E-04,  2.958E-12,  4.965E-14,  1.780E+03,  2.987E+01, 255
2019-252T00:46:02.160,   1, 180,   1,    30,   4,          0,     46.128,  99216.844,    43.050,    -6.766,     0.332,    50.666, 2, 5.486E-04, -1.00,   2,  1.750E-02,  1.985E-04,  6.335E-12,  5.507E-14,  2.259E+03,  1.964E+01, 255
2019-252T00:46:32.160,   1, 180,   1,    30,   4,          0,     46.128,  99216.844,    43.047,    -6.765,     0.332,    50.363, 2, 5.486E-04, -1.00,   2,  2.024E-02,  2.048E-04,  7.539E-12,  5.650E-14,  2.325E+03,  1.742E+01, 255
2019-252T00:47:02.161,   1, 180,   1,    30,   4,          0,     46.128,  99216.844,    43.044,    -6.765,     0.332,    50.061, 2, 5.486E-04, -1.00,   2,  2.124E-02,  2.008E-04,  7.882E-12,  5.515E-14,  2.316E+03,  1.621E+01, 255
2019-252T00:47:32.161,   1, 180,   1,    30,   4,          0,     46.128,  99216.844,    43.041,    -6.764,     0.332,    49.758, 2, 5.486E-04, -1.00,   2,  2.143E-02,  2.044E-04,  7.994E-12,  5.605E-14,  2.328E+03,  1.633E+01, 255
2019-252T00:48:02.161,   1, 180,   1,    30,   4,          0,     46.128,  99216.844,    43.038,    -6.763,     0.332,    49.456, 2, 5.486E-04, -1.00,   2,  2.063E-02,  2.046E-04,  7.490E-12,  5.545E-14,  2.266E+03,  1.677E+01, 255
2019-252T00:48:32.162,   1, 180,   1,    30,   4,          0,     46.128,  99216.844,    43.035,    -6.762,     0.332,    49.154, 2, 5.486E-04, -1.00,   2,  2.023E-02,  2.000E-04,  7.371E-12,  5.491E-14,  2.274E+03,  1.694E+01, 255
2019-252T00:49:02.162,   1, 180,   1,    30,   4,          0,     46.128,  99216.844,    43.032,    -6.761,     0.332,    48.851, 2, 5.486E-04, -1.00,   2,  2.113E-02,  2.091E-04,  7.455E-12,  5.456E-14,  2.202E+03,  1.612E+01, 255
2019-252T00:49:32.162,   1, 180,   1,    30,   4,          0,     46.128,  99216.844,    43.029,    -6.761,     0.332,    48.549, 2, 5.486E-04, -1.00,   2,  1.938E-02,  1.970E-04,  6.961E-12,  5.419E-14,  2.242E+03,  1.745E+01, 255
2019-252T00:50:02.163,   1, 180,   1,    30,   4,          0,     46.128,  99216.844,    43.027,    -6.760,     0.332,    48.246, 2, 5.486E-04, -1.00,   2,  1.874E-02,  1.975E-04,  6.637E-12,  5.441E-14,  2.210E+03,  1.812E+01, 255
2019-252T00:50:32.163,   1, 180,   1,    30,   4,          0,     46.128,  99216.844,    43.024,    -6.759,     0.332,    47.944, 2, 5.486E-04, -1.00,   2,  1.983E-02,  2.041E-04,  6.993E-12,  5.350E-14,  2.201E+03,  1.684E+01, 255
2019-252T00:51:02.163,   1, 180,   1,    30,   4,          0,     46.128,  99216.844,    43.021,    -6.758,     0.332,    47.641, 2, 5.486E-04, -1.00,   2,  1.618E-02,  1.954E-04,  5.757E-12,  5.521E-14,  2.220E+03,  2.129E+01, 255
2019-252T00:51:32.164,   1, 180,   1,    30,   4,          0,     46.128,  99216.844,    43.018,    -6.757,     0.332,    47.339, 2, 5.486E-04, -1.00,   2,  1.163E-02,  1.784E-04,  3.654E-12,  5.086E-14,  1.962E+03,  2.730E+01, 255
2019-252T00:52:02.164,   1, 180,   1,    30,   4,          0,     46.128,  99216.844,    43.015,    -6.757,     0.332,    47.037, 2, 5.486E-04, -1.00,   2,  7.881E-03,  1.655E-04,  2.026E-12,  4.868E-14,  1.604E+03,  3.855E+01, 255
2019-252T00:52:32.165,   1, 180,   1,    30,   4,          0,     46.128,  99216.844,    43.012,    -6.756,     0.332,    46.734, 2, 5.486E-04, -1.00,   2,  6.448E-03,  1.613E-04,  1.083E-12,  4.652E-14,  1.049E+03,  4.502E+01, 255
2019-252T00:56:02.167,   1, 180,   1,    30,   4,          0,     46.128,  99216.844,    42.991,    -6.750,     0.332,    44.617, 2, 5.486E-04, -1.00,   2,  3.293E-03,  1.490E-04,  4.843E-13,  4.602E-14,  9.180E+02,  8.722E+01, 255
2019-252T00:56:32.167,   1, 180,   1,    30,   4,          0,     46.128,  99216.844,    42.988,    -6.750,     0.332,    44.315, 2, 5.486E-04, -1.00,   2,  3.579E-03,  1.520E-04,  3.831E-13,  4.525E-14,  6.681E+02,  7.890E+01, 255
2019-252T00:57:02.168,   1, 180,   1,    30,   4,          0,     46.128,  99216.844,    42.985,    -6.749,     0.332,    44.012, 2, 5.486E-04, -1.00,   2,  3.834E-03,  1.503E-04,  6.114E-13,  4.560E-14,  9.953E+02,  7.423E+01, 255
2019-252T00:57:32.168,   1, 180,   1,    30,   4,          0,     46.128,  99216.844,    42.982,    -6.748,     0.332,    43.710, 2, 5.486E-04, -1.00,   2,  3.642E-03,  1.551E-04,  7.588E-14,  4.517E-14,  1.300E+02,  7.740E+01, 255
2019-252T00:58:02.168,   1, 180,   1,    30,   4,          0,     46.128,  99216.844,    42.979,    -6.747,     0.332,    43.407, 2, 5.486E-04, -1.00,   2,  3.504E-03,  1.533E-04,  1.263E-13,  4.472E-14,  2.250E+02,  7.967E+01, 255
2019-252T00:58:32.169,   1, 180,   1,    30,   4,          0,     46.128,  99216.844,    42.977,    -6.746,     0.332,    43.105, 2, 5.486E-04, -1.00,   2,  3.432E-03,  1.520E-04,  2.411E-13,  4.486E-14,  4.385E+02,  8.159E+01, 255
2019-252T00:59:02.169,   1, 180,   1,    30,   4,          0,     46.128,  99216.844,    42.974,    -6.746,     0.332,    42.803, 2, 5.486E-04, -1.00,   2,  3.966E-03,  1.572E-04,  4.493E-13,  4.550E-14,  7.071E+02,  7.160E+01, 255
2019-252T00:59:32.169,   1, 180,   1,    30,   4,          0,     46.128,  99216.844,    42.971,    -6.745,     0.332,    42.500, 2, 5.486E-04, -1.00,   2,  3.433E-03,  1.511E-04,  3.816E-13,  4.566E-14,  6.938E+02,  8.301E+01, 255
2019-252T01:00:02.170,   1, 180,   1,    30,   4,          0,     46.128,  99216.844,    42.968,    -6.744,     0.332,    42.198, 2, 5.486E-04, -1.00,   2,  3.728E-03,  1.521E-04,  4.284E-13,  4.660E-14,  7.172E+02,  7.801E+01, 255
2019-252T01:01:02.171,   1, 180,   1,    30,   4,          0,     46.128,  99216.844,    42.962,    -6.742,     0.332,    41.593, 2, 5.486E-04, -1.00,   2,  3.387E-03,  1.519E-04,  3.820E-13,  4.519E-14,  7.039E+02,  8.328E+01, 255
2019-252T01:01:32.171,   1, 180,   1,    30,   4,          0,     46.128,  99216.844,    42.959,    -6.742,     0.332,    41.290, 2, 5.486E-04, -1.00,   2,  3.596E-03,  1.579E-04,  2.141E-13,  4.445E-14,  3.715E+02,  7.714E+01, 255
2019-252T01:02:02.171,   1, 180,   1,    30,   4,          0,     46.128,  99216.844,    42.956,    -6.741,     0.332,    40.988, 2, 5.486E-04, -1.00,   2,  2.993E-03,  1.545E-04,  2.186E-14,  4.494E-14,  4.559E+01,  9.374E+01, 255
2019-252T01:02:32.172,   1, 180,   1,    30,   4,          0,     46.128,  99216.844,    42.953,    -6.740,     0.332,    40.685, 2, 5.486E-04, -1.00,   2,  3.380E-03,  1.594E-04,  2.032E-13,  4.590E-14,  3.753E+02,  8.477E+01, 255
2019-252T01:11:32.178,   1, 180,   1,    30,   4,          0,     46.128,  99216.844,    42.900,    -6.726,     0.332,    35.242, 2, 5.486E-04, -1.00,   2,  2.953E-03,  1.505E-04,  2.037E-13,  4.460E-14,  4.306E+02,  9.428E+01, 255